Regional Weather Roundup
Issued by NWS Jackson, KY

Home | Current Version | Previous Version | Text Only | Print | Product List | Glossary Off
Versions: 1 2 3 4 5 6 7 8 9 10 11 12 13 14 15 16 17 18 19 20 21 22 23 24 25 26 27 28 29 30 31 32 33 34 35 36 37 38 39 40 41 42 43 44 45 46 47 48 49 50

000
ASUS43 KJKL 151905
RWRJKL

EAST KENTUCKY HOURLY WEATHER ROUNDUP
NATIONAL WEATHER SERVICE JACKSON KY
300 PM EDT TUE APR 15 2014

NOTE: "FAIR" INDICATES FEW OR NO CLOUDS BELOW 12,000 FEET WITH
NO SIGNIFICANT WEATHER AND/OR OBSTRUCTIONS TO VISIBILITY.

* THESE REPORTS ARE NOT UNDER NWS QUALITY CONTROL AND MAY NOT
  REPORT WEATHER SUCH AS PRECIPITATION AND FOG.

KYZ079-080-083-085-087-088-110-112-115-119-120-152000
...EASTERN KENTUCKY...

CITY           SKY/WX    TMP DP  RH WIND       PRES   REMARKS
JACKSON        CLOUDY    35  28  75 MISG      30.05R
LONDON         CLOUDY    38  30  73 N10       30.07R WCI  31
SOMERSET*      CLOUDY    36  32  87 NW12      30.10R WCI  27
MONTICELLO*    PTSUNNY   41  32  70 NW13      30.11R
WILLIAMSBURG*  CLOUDY    37  32  81 NW8       30.07  WCI  31
MIDDLESBORO*   CLOUDY    38  30  71 NW6G16    30.05S WCI  34
HARLAN APT*    CLOUDY    36  32  87 W3G17     30.03S
BLACK MTN*       N/A     25  25 100 VRB7        N/A  WCI  17
PIKEVILLE APT* CLOUDY    34  30  86 NW6       30.02R WCI  29
BIG SANDY*     CLOUDY    35  32  91 NW5       30.04R WCI  31
$$

KYZ035-036-041-042-044-050-067-078-099-152000
...CENTRAL KENTUCKY...

CITY           SKY/WX    TMP DP  RH WIND       PRES   REMARKS
MT STERLING*   CLOUDY    37  28  70 N9        30.09R WCI  31
FLEMING/MASON* CLOUDY    37  22  56 NW12G17   30.09R WCI  29
DANVILLE*      CLOUDY    37  28  70 NW16G22   30.10R WCI  28
RICHMOND*      CLOUDY    36  28  75 NW10      30.08R WCI  28
LEXINGTON      CLOUDY    41  29  62 NW13      30.09R
FRANKFORT      CLOUDY    39  24  55 NW13G21   30.09R WCI  31
$$

KYZ091>093-OHZ055-061-077-WVZ005-015-034-035-042-152000
...SOUTHERN OHIO/WEST VIRGINIA...

CITY           SKY/WX    TMP DP  RH WIND       PRES   REMARKS
COVINGTON      FLURRIES  37  21  52 N17       30.09R WCI  27
COLUMBUS       CLOUDY    36  25  64 NW18G25   30.04S WCI  26
DAYTON         CLOUDY    35  20  54 NW18G24   30.09S WCI  24
WILMINGTON       N/A     37  21  52 NW20G28   30.06R WCI  27
HUNTINGTON     CLOUDY    34  27  75 NW10G21   30.04S WCI  26
CHARLESTON     LGT SNOW  37  34  89 NW8       29.98S FOG     WCI  31
PINEVILLE*     LGT SNOW  36  35  98 MISG      30.00R
BECKLEY        LGT SNOW  31  28  89 NW9       29.89S VSB 1   WCI  23
BLUEFIELD      LGT SNOW  34  28  79 NW12G20   29.86R WCI  25
$$

VAZ002-007-008-TNZ017-027-036-066-071-152000
...SOUTHWEST VIRGINIA/EAST TENNESSEE...

CITY           SKY/WX    TMP DP  RH WIND       PRES   REMARKS
WISE*          LGT SNOW  32  32 100 NW10      29.95S VSB 1   WCI  24
ABINGDON*      LGT SNOW  35  32  90 N13G21    29.92R VSB 1   WCI  26
BRISTOL        LGT SNOW  38  34  85 N10       29.96R FOG     WCI  31
KNOXVILLE      CLOUDY    40  31  70 N13G22    30.03R WCI  32
OAK RIDGE      CLOUDY    42  29  59 N10G17    30.06R
CROSSVILLE     CLOUDY    39  31  72 NW13G24   30.04R HAZE    WCI  31
NASHVILLE      PTSUNNY   47  26  44 NW14G25   30.13F
$$

...KEY TO REMARKS...
VSB - VISIBILITY IN MILES
WCI - WIND CHILL INDEX
HX  - HEAT INDEX

$$



USA.gov is the U.S. government's official web portal to all federal, state and local government web resources and services.